TimeCST,TemperatureF,Dew PointF,Humidity,Sea Level PressureIn,VisibilityMPH,Wind Direction,Wind SpeedMPH,Gust SpeedMPH,PrecipitationIn,Events,Conditions,WindDirDegrees,DateUTC
12:09 AM,32.0,32.0,100,29.69,5.0,SSE,8.1,-,N/A,,Overcast,150,2013-01-11 06:09:00
12:30 AM,32.0,32.0,100,29.68,4.0,SSE,4.6,-,0.01,,Overcast,150,2013-01-11 06:30:00
12:49 AM,32.0,32.0,100,29.67,5.0,SSE,5.8,-,0.01,,Overcast,150,2013-01-11 06:49:00
1:10 AM,32.0,32.0,100,29.66,3.0,SSE,8.1,-,N/A,,Overcast,150,2013-01-11 07:10:00
1:29 AM,32.0,32.0,100,29.65,3.0,SSE,9.2,-,N/A,,Overcast,150,2013-01-11 07:29:00
1:49 AM,32.0,32.0,100,29.65,2.5,SSE,9.2,-,N/A,,Overcast,160,2013-01-11 07:49:00
2:09 AM,32.0,32.0,100,29.64,2.5,SSE,10.4,-,N/A,,Overcast,160,2013-01-11 08:09:00
2:29 AM,32.0,32.0,100,29.63,2.5,South,5.8,-,N/A,,Overcast,170,2013-01-11 08:29:00
2:50 AM,32.0,32.0,100,29.62,4.0,SSE,5.8,-,N/A,,Overcast,160,2013-01-11 08:50:00
3:09 AM,32.0,32.0,100,29.62,3.0,South,5.8,-,N/A,,Overcast,170,2013-01-11 09:09:00
3:29 AM,32.0,32.0,100,29.60,3.0,SSE,4.6,-,N/A,,Overcast,150,2013-01-11 09:29:00
3:50 AM,32.0,32.0,100,29.59,2.5,SSE,4.6,-,0.01,,Overcast,160,2013-01-11 09:50:00
4:09 AM,32.0,32.0,100,29.59,1.8,South,4.6,-,0.01,,Overcast,170,2013-01-11 10:09:00
4:29 AM,32.0,32.0,100,29.58,2.5,South,3.5,-,0.01,,Overcast,170,2013-01-11 10:29:00
4:50 AM,32.0,32.0,100,29.58,2.5,South,3.5,-,0.02,,Overcast,170,2013-01-11 10:50:00
5:09 AM,32.0,32.0,100,29.57,3.0,SSE,3.5,-,N/A,,Overcast,160,2013-01-11 11:09:00
5:29 AM,32.0,32.0,100,29.57,2.5,Calm,Calm,-,0.02,,Overcast,0,2013-01-11 11:29:00
5:50 AM,32.0,32.0,100,29.57,2.5,Calm,Calm,-,0.06,,Overcast,0,2013-01-11 11:50:00
6:09 AM,32.0,32.0,100,29.56,4.0,Calm,Calm,-,0.01,,Overcast,0,2013-01-11 12:09:00
6:50 AM,32.0,32.0,100,29.55,4.0,Calm,Calm,-,0.05,,Overcast,0,2013-01-11 12:50:00
7:09 AM,32.0,32.0,100,29.54,5.0,Calm,Calm,-,0.01,,Overcast,0,2013-01-11 13:09:00
7:30 AM,32.0,32.0,100,29.54,5.0,Calm,Calm,-,0.02,,Overcast,0,2013-01-11 13:30:00
7:49 AM,32.0,32.0,100,29.55,4.0,Calm,Calm,-,0.04,,Overcast,0,2013-01-11 13:49:00
8:10 AM,32.0,32.0,100,29.54,4.0,Calm,Calm,-,0.02,,Overcast,0,2013-01-11 14:10:00
8:29 AM,32.0,32.0,100,29.54,3.0,Calm,Calm,-,0.03,,Overcast,0,2013-01-11 14:29:00
8:50 AM,32.0,32.0,100,29.53,2.5,Calm,Calm,-,0.06,,Overcast,0,2013-01-11 14:50:00
9:10 AM,32.0,32.0,100,29.53,4.0,Calm,Calm,-,0.01,,Overcast,0,2013-01-11 15:10:00
9:29 AM,32.0,32.0,100,29.53,2.5,Calm,Calm,-,0.03,,Overcast,0,2013-01-11 15:29:00
9:50 AM,32.0,32.0,100,29.53,5.0,Calm,Calm,-,0.06,,Overcast,0,2013-01-11 15:50:00
10:10 AM,32.0,32.0,100,29.53,3.0,Calm,Calm,-,N/A,,Overcast,0,2013-01-11 16:10:00
10:29 AM,32.0,32.0,100,29.53,1.5,Calm,Calm,-,N/A,,Overcast,0,2013-01-11 16:29:00
10:50 AM,32.0,32.0,100,29.53,1.2,Calm,Calm,-,N/A,,Overcast,0,2013-01-11 16:50:00
11:10 AM,33.8,32.0,93,29.52,1.2,SSE,3.5,-,N/A,,Overcast,150,2013-01-11 17:10:00
11:29 AM,33.8,32.0,93,29.51,1.8,SE,3.5,-,N/A,,Overcast,140,2013-01-11 17:29:00
11:50 AM,33.8,32.0,93,29.50,1.5,SSE,3.5,-,N/A,,Overcast,150,2013-01-11 17:50:00
12:10 PM,33.8,32.0,93,29.48,0.8,SSE,4.6,-,N/A,,Overcast,150,2013-01-11 18:10:00
12:29 PM,33.8,33.8,100,29.48,0.8,SSE,5.8,-,N/A,,Overcast,150,2013-01-11 18:29:00
12:50 PM,33.8,33.8,100,29.47,0.5,SSE,5.8,-,N/A,Fog,Fog,150,2013-01-11 18:50:00
1:10 PM,33.8,33.8,100,29.47,1.0,SSE,4.6,-,N/A,,Overcast,150,2013-01-11 19:10:00
1:29 PM,33.8,33.8,100,29.47,1.2,SE,4.6,-,N/A,,Overcast,140,2013-01-11 19:29:00
2:10 PM,33.8,33.8,100,29.46,3.0,SE,5.8,-,N/A,,Overcast,140,2013-01-11 20:10:00
2:29 PM,33.8,33.8,100,29.47,4.0,SSE,6.9,-,N/A,,Overcast,150,2013-01-11 20:29:00
2:50 PM,33.8,33.8,100,29.46,4.0,SSE,5.8,-,N/A,,Overcast,150,2013-01-11 20:50:00
3:10 PM,33.8,33.8,100,29.46,2.5,SSE,6.9,-,N/A,,Overcast,160,2013-01-11 21:10:00
3:29 PM,33.8,33.8,100,29.45,1.5,SSE,8.1,-,N/A,,Overcast,150,2013-01-11 21:29:00
3:50 PM,33.8,33.8,100,29.45,0.8,SE,3.5,-,N/A,,Overcast,130,2013-01-11 21:50:00
4:10 PM,33.8,33.8,100,29.43,0.5,ESE,3.5,-,N/A,Fog,Fog,120,2013-01-11 22:10:00
4:30 PM,35.6,33.8,93,29.44,0.8,SE,3.5,-,N/A,,Overcast,130,2013-01-11 22:30:00
4:49 PM,35.6,35.6,100,29.43,1.0,SE,5.8,-,N/A,,Overcast,130,2013-01-11 22:49:00
5:10 PM,35.6,33.8,93,29.43,1.0,SE,4.6,-,N/A,,Overcast,140,2013-01-11 23:10:00
5:30 PM,35.6,33.8,93,29.43,1.2,Calm,Calm,-,N/A,,Overcast,0,2013-01-11 23:30:00
5:49 PM,35.6,33.8,93,29.42,1.5,SE,3.5,-,N/A,,Overcast,130,2013-01-11 23:49:00
6:10 PM,35.6,35.6,100,29.42,1.5,ESE,4.6,-,N/A,,Overcast,120,2013-01-12 00:10:00
6:29 PM,35.6,35.6,100,29.41,2.0,SE,4.6,-,N/A,,Overcast,130,2013-01-12 00:29:00
6:50 PM,35.6,35.6,100,29.40,2.0,ESE,4.6,-,N/A,,Overcast,110,2013-01-12 00:50:00
7:09 PM,35.6,35.6,100,29.39,2.5,ESE,3.5,-,N/A,,Overcast,120,2013-01-12 01:09:00
7:29 PM,35.6,35.6,100,29.38,3.0,SE,4.6,-,N/A,,Overcast,130,2013-01-12 01:29:00
7:50 PM,35.6,35.6,100,29.38,2.5,SE,5.8,-,N/A,,Overcast,140,2013-01-12 01:50:00
8:09 PM,35.6,35.6,100,29.37,4.0,SSE,6.9,-,N/A,,Overcast,150,2013-01-12 02:09:00
8:29 PM,35.6,35.6,100,29.37,4.0,SE,6.9,-,N/A,,Overcast,140,2013-01-12 02:29:00
8:50 PM,35.6,35.6,100,29.35,4.0,SE,6.9,-,N/A,,Overcast,140,2013-01-12 02:50:00
9:09 PM,35.6,35.6,100,29.35,10.0,SSE,8.1,-,N/A,,Overcast,150,2013-01-12 03:09:00
9:29 PM,35.6,35.6,100,29.35,5.0,SSE,5.8,-,N/A,,Overcast,160,2013-01-12 03:29:00
9:50 PM,35.6,35.6,100,29.35,4.0,SSE,3.5,-,N/A,,Light Drizzle,160,2013-01-12 03:50:00
10:09 PM,35.6,35.6,100,29.34,4.0,SSE,3.5,-,N/A,,Light Drizzle,160,2013-01-12 04:09:00
10:29 PM,35.6,35.6,100,29.33,4.0,SSE,4.6,-,N/A,,Drizzle,150,2013-01-12 04:29:00
10:50 PM,35.6,35.6,100,29.32,4.0,SE,3.5,-,0.01,Rain,Light Rain,130,2013-01-12 04:50:00
11:29 PM,35.6,35.6,100,29.30,4.0,SE,3.5,-,0.02,Rain,Light Rain,130,2013-01-12 05:29:00
11:50 PM,35.6,35.6,100,29.29,5.0,SE,3.5,-,0.02,,Light Drizzle,140,2013-01-12 05:50:00